Regional Weather Roundup
Issued by NWS

Home | Current Version | Previous Version | Graphics & Text | Print | Product List | Glossary On
Versions: 1 2 3 4 5 6 7 8 9 10 11 12 13 14 15 16 17 18 19 20 21 22 23 24 25 26 27 28 29 30 31 32 33 34 35 36 37 38 39 40 41 42 43 44 45 46 47 48 49 50
051
ASUS43 KTOP 201359
RWRKS

WEATHER ROUNDUP FOR KANSAS
NATIONAL WEATHER SERVICE GOODLAND KS
900 AM CDT FRI APR 20 2018

NOTE:  "FAIR" INDICATES FEW OR NO CLOUDS BELOW 12,000 FEET WITH NO
SIGNIFICANT WEATHER AND/OR OBSTRUCTIONS TO VISIBILITY.

KSZ001>006-013>018-027>032-041>047-201500-
NORTHWEST KANSAS

CITY           SKY/WX    TMP DP  RH WIND       PRES   REMARKS
GOODLAND       CLOUDY    42  29  59 SE21G35   30.12R
HAYS           CLOUDY    46  31  55 SE16      30.27S
HILL CITY      CLOUDY    45  31  58 SE12      30.26R
RUSSELL        CLOUDY    47  33  58 SE21      30.27S
$$

KSZ061>065-074>080-084>089-201500-
SOUTHWEST KANSAS

CITY           SKY/WX    TMP DP  RH WIND       PRES   REMARKS
DODGE CITY     PTSUNNY   45  29  53 SE18      30.22R
GARDEN CITY    CLOUDY    43  29  57 SE24G36   30.18S
GREAT BEND     CLOUDY    46  32  58 SE18      30.27F
LIBERAL        CLOUDY    46  32  58 SE17G25   30.17F
$$

KSZ066>073-081>083-090>101-201500-
SOUTHEAST KANSAS

CITY           SKY/WX    TMP DP  RH WIND       PRES   REMARKS
CHANUTE        CLOUDY    50  33  52 SE14G22   30.41S
COFFEYVILLE    MOSUNNY   50  35  56 SE12      30.40S
HUTCHINSON     MOSUNNY   47  33  58 SE15G23   30.31F
MEDICINE LODGE   N/A     47  32  56 E8G22     30.28F
NEWTON         MOSUNNY   47  32  56 SE15      30.34F
PARSONS        CLOUDY    49  33  54 SE8       30.41S
WICHITA INTL   CLOUDY    51  32  48 SE18      30.33S
WICHITA JABRA  CLOUDY    49  33  54 SE14      30.34F
WICHITA MCCONL CLOUDY    49  30  47 SE15      30.33F
WINFIELD       MOSUNNY   50  33  52 SE15      30.36R
$$

KSZ007>012-019>026-033>040-048>060-102>105-201500-
NORTHEAST KANSAS

CITY           SKY/WX    TMP DP  RH WIND       PRES   REMARKS
CONCORDIA      CLOUDY    44  32  62 SE13      30.34S
EMPORIA        CLOUDY    47  32  56 SE16      30.38F
LAWRENCE       PTSUNNY   46  34  62 SE7       30.45S
MANHATTAN      MOSUNNY   48  32  53 SE9G20    30.38F
OLATHE IND     SUNNY     49  32  52 SE12      30.45S
OLATHE EXE     SUNNY     47  32  56 SE13      30.44F
SALINA         CLOUDY    49  33  54 SE16      30.34F
TOPEKA BILLARD CLOUDY    48  34  58 SE15      30.43S
TOPEKA FORBES  CLOUDY    49  35  58 SE9       30.42S
$$




USA.gov is the U.S. government's official web portal to all federal, state and local government web resources and services.